Terminal Aerodrome Forecast
Issued by NWS Des Moines, IA

Home | Current Version | Previous Version | Text Only | Print | Product List | Glossary On
Versions: 1 2 3 4 5 6 7 8 9 10 11 12 13 14 15 16 17 18 19 20 21 22 23 24 25 26 27 28 29 30 31 32
000
FTUS43 KDMX 311135
TAFALO
TAF
KALO 311135Z 3112/0112 25005KT P6SM BKN090
     FM311500 26006KT P6SM BKN040
     FM312100 02007KT 4SM -RASN BR SCT015 OVC025
     FM010000 06009KT 1SM -SN OVC009
     FM010900 06017G24KT 1 1/2SM -SN BLSN OVC009=

USA.gov is the U.S. government's official web portal to all federal, state and local government web resources and services.